Other Surface Observations
Issued by NWS

Home | Current Version | Previous Version | Text Only | Print | Product List | Glossary On
Versions: 1 2 3 4 5 6 7 8 9 10 11 12 13 14 15 16 17 18 19 20 21 22 23 24 25 26 27 28 29 30 31 32 33 34 35 36 37 38 39 40 41 42 43 44 45 46 47 48 49 50
000
SXUS52 KTAE 181505
OSOTAE
OSOTAE
North Florida/South Alabama/Southwest Georgia Weather Roundup
National Weather Service Tallahassee Florida
1000 AM EST MON DEC 18 2017

Note: "fair" indicates few or no clouds below 12,000 feet with no
significant weather and/or obstructions to visibility.

!FLZ017-115-028-034-025-181600
...North Florida...

CITY           SKY/WX    TMP DP  RH WIND       PRES   REMARKS
TALLAHASSEE    CLOUDY    72  70  93 SW7       30.22R
APALACHICOLA   CLOUDY    72  72 100 SW7       30.22S
PERRY          CLOUDY    70  69  96 SW7       30.25R
CROSS CITY     FOG       66 N/A N/A S3        30.30R VSB<1/4
JACKSONVILLE   PTSUNNY   70  64  81 W7        30.25R
$$

!FLZ112-006-005-002-011-181600
...Florida Panhandle...

CITY           SKY/WX    TMP DP  RH WIND       PRES   REMARKS
MARIANNA       CLOUDY    72  71  97 W6        30.20R
BONIFAY        NOT AVBL
PANAMA CITY NW CLOUDY    73  71  93 S6        30.21R
TYNDALL AFB    CLOUDY    72  72 100 SW12      30.21R
TYND DRONE APT PTSUNNY   71  71  99 SW7       30.22R
DE FUNIAK SPR  CLOUDY    69  69 100 CALM      30.22R FOG
EGLIN AFB      CLOUDY    71  71 100 W3        30.21R FOG
DESTIN         CLOUDY    75  70  84 CALM      30.21R
HURLBURT       LGT RAIN  71  70  98 CALM      30.20R
CRESTVIEW      CLOUDY    69  68  96 VRB3      30.22R
PENSACOLA      CLOUDY    71  68  90 CALM      30.21R
$$

!ALZ063-066-181600
...South Alabama...

CITY           SKY/WX    TMP DP  RH WIND       PRES   REMARKS
DOTHAN         CLOUDY    69  69 100 W5        30.24R FOG
OZARK CAIRNS   CLOUDY    68  68 100 SW5       30.21R
FT RUCKER HELI CLOUDY    70  68  94 CALM      30.21R
RUCKER HELI 3    N/A     68  68 100 N5        30.21R FOG
RUCKER HELI 2  LGT RAIN  69  69  99 CALM      30.20R FOG
FLORALA APT    CLOUDY    69  67  93 CALM      30.23R
ANDALUSIA      LGT RAIN  70  66  87 NW3       30.21R FOG
TROY           LGT RAIN  61  61 100 CALM      30.23S FOG
EUFALA         CLOUDY    64  63  96 CALM      30.21R FOG
MOBILE         LGT RAIN  65  64  97 CALM      30.23R FOG
$$

!GAZ120>161-181600
...Southwest and South Central Georgia...

CITY           SKY/WX    TMP DP  RH WIND       PRES   REMARKS
THOMASVILLE    CLOUDY    70  70 100 SW5       30.23R FOG
BAINBRIDGE     CLOUDY    72  72 100 CALM      30.22R
MOODY AFB      FOG       68  68 100 SE6       30.21S VSB 1
VALDOSTA       FOG       68  67  96 S6        30.23R VSB 1
MOULTRIE         N/A     68  66  94 S3        30.22S FOG
BLAKELY        RAIN      70  68  94 CALM      30.22R
ALBANY         LGT RAIN  65  65 100 CALM      30.23R VSB 1/2
TIFTON         FOG      N/A N/A N/A CALM      30.21S VSB 1/2
FITZGERALD     FOG       66  66 100 S3        30.23S VSB 1/2
CORDELE        FOG       69  67  92 CALM      30.22R VSB 3/4
AMERICUS       FOG       59  55  88 CALM      30.24R VSB 1/2
HOMERVILLE     CLOUDY    64  64 100 S3        30.23S FOG
$$

!GMZ750-755-770-775-181600
...Coastal and Buoy Obs...

STATION/POSITION TIME  TEMP    WIND        PRES    VSBY  WAVE
                       AIR SEA DIR/SP/G                  HT/PER
                 (UTC) (F)     (DEG/KT/KT) (MB)    (MI)  (FT/S)
KEATON BEACH     1500   65     170/  6/  7 1023.8R
CEDAR KEY        1400   64      90/  5/  5 1024.4R
C TOWER          1500   72     230/ 13/ 14 1024.2R
APALACHICOLA BUO NOT AVBL
PANAMA CITY BUOY 1450   74 73  200/  8/ 10 1023.4R         3/ 7
MOBILE BUOY      1450   75 75  220/  8/ 10 1023.0R         4/ 6
ORANGE BCH AL BU NOT AVBL
$$




USA.gov is the U.S. government's official web portal to all federal, state and local government web resources and services.